TITAN 3C TRANSTAGE DEB, 27793

Orbit data source: Space-Track

TITAN 3C TRANSTAGE DEB, 27793 is space debris in HEO originally from a launch on Tue, 21 Dec 1965 UTC launched from the Air Force Eastern Test Range (AFETR). Debris objects in space refer to the collection of defunct objects orbiting the Earth. Examples of debris include non-operational satellites, rocket bodies, and fragments generated from explosions, collisions, or faulty payload assembly.

Loading next visibility...
Identifier
27793, 1965-108BH
Orbit
HEO
Country
Flag of USUS
Related business
Manufacturer
Unknown
Mission
Spacecraft
Bus & Motor
Unknown
Mass
Unknown
Launch date (UTC)
1965-12-21 (60 years ago)
Launch vehicle
Unknown
Launch site
Air Force Eastern Test Range (AFETR)
Object type
Payload
Rocket body
Debris
Shape & HBR
Unknown shape, 0.1 m
Radar Cross Section
Small (<0.1 m²)

Expand to show TLE details & history
Last TLE update: 3 months ago

TLE from 3 months ago
0 TITAN 3C TRANSTAGE DEB
1 27793U 65108BH  25296.81909079  .00001355  00000-0  73297-2 0  9999
2 27793  26.2047 173.7408 6503042 225.8712  57.7617  3.12090800129017
Epoch: 2025-10-23T19:39Z
TLE epoch observation values (Epoch: 2025-10-23T19:39:29.444Z)
Latitude
0.00006°
Longitude
-153.54154°
Altitude
14,494.026 km
Speed
4.248 km/s
True Right ascension
11h 35m 12s
True Declination
0° 00' 00"
Sunlit
Object was in daylight at epoch
Visualization orbit readout
Latitude
Unknown
Longitude
Unknown
Altitude
Unknown
Speed
Unknown
Apparent Right ascension
Unknown
Apparent Declination
Unknown
Sunlit
N/A
Visualization observer readout
Local Sidereal Time
00:52:26
Azimuth
Unknown
Elevation
Unknown
Doppler factor
Unknown
Orbital elements
Apogee altitude
26,269.947 km
Perigee altitude
539.92 km
Semi-major axis
19,783.071 km
Eccentricity
0.6503
Inclination
26.2047°
RAAN
173.7408°
Arg. of periapsis
225.8712°
True anomaly
134.17709°
Mean anomaly
57.7617°
Eccentric anomaly
94.88599°
Mean motion
0.78001 °/min
Orbital period
461.53 mins
BSTAR
0.0073297
Loading maneuver chart data...
Computing Atmospheric mass density...

Documentation

Showing up to 5 results
|